User: anonymous   Login
Location: Unspecified
(0.0000°N, 0.0000°E)
Time: 00:27:37
(UTC+00:00)
Language:

MUOS 2 - Orbit

View from above orbital plane
View from above orbital plane
View from above satellite
View from above satellite

Ground track
Ground track

The orbit data is extracted from the following two-line orbital elements,

1 39206U 13036A   17083.69826856 0.00000000  00000-0  00000-0 0    05
2 39206   3.7258 333.8009 0055543 357.7592   2.2162  1.00270000    06
Epoch (UTC): 24 March 2017 16:45:30
Eccentricity: 0.0055543
inclination: 3.7258°
perigee height: 35552 km
apogee height: 36021 km
right ascension of ascending node: 333.8009°
argument of perigee: 357.7592°
revolutions per day: 1.00270000
mean anomaly at epoch: 2.2162°
orbit number at epoch: 0

The dashed part of the orbit path shows where the satellite is in the earth's shadow,  

DLR